Slayton, MN

9:13 PM CDT on June 28, 2017 (GMT -0500)
Slayton

Weather History for KDVP - January, 2013

Change the Weather History Date:

Monday, January 28, 2013

  Actual Average (KOTG) Record (KOTG)
Temperature  
Mean Temperature 32 °F -  
Max Temperature 33 °F 23 °F 48 °F (1989)
Min Temperature 30 °F 9 °F -20 °F (1977)
Degree Days  
Heating Degree Days 34    
Moisture  
Dew Point 32 °F    
Average Humidity 100    
Maximum Humidity 100    
Minimum Humidity 100    
Precipitation  
Precipitation 0.00 in - - ()
Sea Level Pressure  
Sea Level Pressure 29.76 in    
Wind  
Wind Speed 5 mph (SSE)    
Max Wind Speed 12 mph    
Max Gust Speed -    
Averages and records for this station are not official NWS values.
T = Trace of Precipitation, MM = Missing Value Source: NWS Daily Summary

Daily Weather History Graph

Daily Weather History Graph

Search for Another Location

Airport or City:

Trip Planner

Search our weather history database for the weather conditions in past years. The results will help you decide how hot, cold, wet, or windy it might be!

Date:

Astronomy

Jan. 28, 2013 Rise Set
Actual Time 7:44 AM CST 5:28 PM CST
Civil Twilight 7:13 AM CST 5:59 PM CST
Nautical Twilight 6:38 AM CST 6:34 PM CST
Astronomical Twilight 6:04 AM CST 7:08 PM CST
Moon 7:30 PM CST (1/28) 8:05 AM CST (1/28)
Length of Visible Light 10h 46m
Length of Day
9h 44m
Full, 98% of the Moon is Illuminated
Jan 28
Full
Feb 3
Last Quarter
Feb 10
New
Feb 17
First Quarter
Feb 25
Full

Hourly Weather History & Observations

Time (CST) Temp. Windchill Dew Point Humidity Pressure Visibility Wind Dir Wind Speed Gust Speed Precip Events Conditions
12:15 AM 31.8 °F 27.3 °F 32.0 °F 100% 29.79 in 0.8 mi West 4.6 mph - N/A   Overcast
12:35 AM 31.6 °F 27.0 °F 31.8 °F 100% 29.78 in 0.5 mi West 4.6 mph - N/A Fog Light Freezing Fog
12:55 AM 31.5 °F 26.8 °F 31.6 °F 100% 29.78 in 0.5 mi WSW 4.6 mph - N/A Fog Light Freezing Fog
1:15 AM 31.5 °F 25.8 °F 31.6 °F 100% 29.78 in 0.5 mi WSW 5.8 mph - N/A Fog Light Freezing Fog
1:35 AM 31.1 °F 25.4 °F 31.3 °F 100% 29.78 in 0.5 mi WSW 5.8 mph - N/A Fog Light Freezing Fog
1:55 AM 31.1 °F 24.5 °F 31.1 °F 100% 29.78 in 0.5 mi WSW 6.9 mph - N/A Fog Light Freezing Fog
2:15 AM - - - N/A% 29.79 in 0.5 mi West 5.8 mph - N/A Fog Light Freezing Fog
2:36 AM 31.1 °F 26.4 °F 31.1 °F 100% 29.80 in 0.5 mi WSW 4.6 mph - N/A Fog Light Freezing Fog
2:55 AM - - - N/A% 29.81 in 0.2 mi SW 5.8 mph - N/A Fog Light Freezing Fog
3:15 AM - - - N/A% 29.80 in 0.2 mi West 3.5 mph - N/A Fog Light Freezing Fog
3:35 AM 30.7 °F - 30.9 °F 100% 29.79 in 0.2 mi Calm Calm - N/A Fog Light Freezing Fog
3:55 AM 30.7 °F 26.0 °F 30.9 °F 100% 29.81 in 0.2 mi SW 4.6 mph - N/A Fog Light Freezing Fog
4:15 AM 30.7 °F 26.0 °F 30.9 °F 100% 29.81 in 0.2 mi SSW 4.6 mph - N/A Fog Light Freezing Fog
4:35 AM - - - N/A% 29.81 in 0.5 mi SW 6.9 mph - N/A Fog Light Freezing Fog
4:55 AM 31.1 °F - 31.1 °F 100% 29.81 in 0.5 mi Calm Calm - N/A Fog Light Freezing Fog
5:15 AM 31.1 °F 27.7 °F 31.1 °F 100% 29.81 in 0.2 mi SSW 3.5 mph - N/A Fog Light Freezing Fog
5:35 AM 31.1 °F 27.7 °F 31.5 °F 100% 29.82 in 0.5 mi South 3.5 mph - N/A Fog Light Freezing Fog
5:55 AM 31.5 °F 25.8 °F 31.6 °F 100% 29.82 in 0.2 mi SSW 5.8 mph - N/A Fog Light Freezing Fog
6:15 AM 31.6 °F 27.0 °F 31.8 °F 100% 29.83 in 0.5 mi SSW 4.6 mph - N/A Fog Light Freezing Fog
6:35 AM 31.8 °F 26.2 °F 32.0 °F 100% 29.84 in 0.8 mi SW 5.8 mph - N/A   Overcast
6:55 AM 32.0 °F 28.7 °F 32.0 °F 100% 29.83 in 0.8 mi South 3.5 mph - N/A   Overcast
7:15 AM 32.0 °F 27.5 °F 32.0 °F 100% 29.83 in 0.5 mi South 4.6 mph - N/A Fog Fog
7:35 AM 32.0 °F 28.7 °F 32.0 °F 100% 29.83 in 0.5 mi South 3.5 mph - N/A Fog Fog
7:55 AM 31.8 °F 27.3 °F 32.0 °F 100% 29.82 in 0.2 mi South 4.6 mph - N/A Fog Fog
8:15 AM 31.8 °F 28.5 °F 32.0 °F 100% 29.82 in 0.2 mi SSE 3.5 mph - N/A Fog Fog
8:35 AM 32.0 °F - 32.0 °F 100% 29.83 in 0.2 mi Calm Calm - N/A Fog Fog
8:55 AM 32.0 °F - 32.0 °F 100% 29.84 in 0.2 mi Calm Calm - N/A Fog Fog
9:15 AM 32.0 °F - 32.0 °F 100% 29.84 in 0.2 mi Calm Calm - N/A Fog Fog
9:35 AM 32.0 °F - 32.0 °F 100% 29.85 in 0.2 mi Calm Calm - N/A Fog Fog
9:55 AM 32.0 °F 28.7 °F 32.0 °F 100% 29.84 in 0.2 mi SSE 3.5 mph - N/A Fog Fog
10:16 AM 32.0 °F - 32.0 °F 100% 29.83 in 0.2 mi Calm Calm - N/A Fog Fog
10:35 AM 32.0 °F - 32.0 °F 100% 29.83 in 0.2 mi Calm Calm - N/A Fog Fog
10:55 AM 32.2 °F 27.7 °F 32.4 °F 100% 29.82 in 0.2 mi SE 4.6 mph - N/A Fog Fog
11:15 AM 32.9 °F 28.5 °F 32.9 °F 100% 29.82 in 0.2 mi SE 4.6 mph - N/A Fog Fog
11:34 AM 32.9 °F 29.8 °F 32.9 °F 100% 29.81 in 0.2 mi SE 3.5 mph - N/A Fog Fog
11:56 AM 32.9 °F 28.5 °F 33.1 °F 100% 29.81 in 0.2 mi SE 4.6 mph - N/A Fog Fog
12:15 PM 32.9 °F 27.5 °F 33.1 °F 100% 29.82 in 0.2 mi SSW 5.8 mph - N/A Fog Fog
12:35 PM 32.9 °F 27.5 °F 33.1 °F 100% 29.81 in 0.2 mi South 5.8 mph - N/A Fog Fog
12:55 PM 33.1 °F 27.7 °F 33.3 °F 100% 29.79 in 0.2 mi SSE 5.8 mph - N/A Fog Fog
1:14 PM 32.9 °F 25.3 °F 33.1 °F 100% 29.77 in 0.2 mi SE 9.2 mph - N/A Fog Fog
1:35 PM 32.9 °F 25.3 °F 33.1 °F 100% 29.76 in 0.2 mi SE 9.2 mph - N/A Fog Fog
1:55 PM 32.5 °F 24.8 °F 32.5 °F 100% 29.76 in 0.2 mi SE 9.2 mph - N/A Fog Fog
2:15 PM 32.4 °F 25.3 °F 32.5 °F 100% 29.76 in 0.2 mi SSE 8.1 mph - N/A Fog Fog
2:36 PM 32.4 °F 26.9 °F 32.5 °F 100% 29.78 in 0.2 mi South 5.8 mph - N/A Fog Fog
2:55 PM - - - N/A% 29.78 in 0.2 mi South 8.1 mph - N/A Fog Fog
3:15 PM 32.9 °F - 32.9 °F 100% 29.77 in 0.2 mi Calm Calm - N/A Fog Fog
3:35 PM 32.9 °F - 32.9 °F 100% 29.76 in 0.2 mi Calm Calm - N/A Fog Fog
3:55 PM 32.9 °F - 32.9 °F 100% 29.74 in 0.2 mi Calm Calm - N/A Fog Fog
4:15 PM 32.9 °F 29.8 °F 32.9 °F 100% 29.75 in 0.2 mi North 3.5 mph - N/A Fog Fog
4:36 PM 32.5 °F 27.1 °F 32.5 °F 100% 29.73 in 0.2 mi NNE 5.8 mph - N/A Snow Light Snow
4:55 PM 32.4 °F 26.9 °F 32.5 °F 100% 29.72 in 0.2 mi NE 5.8 mph - N/A Snow Snow
5:15 PM 32.2 °F 25.0 °F 32.2 °F 100% 29.72 in 0.2 mi ENE 8.1 mph - N/A Snow Light Snow
5:35 PM 32.0 °F 24.8 °F 32.0 °F 100% 29.73 in 0.2 mi East 8.1 mph - N/A Snow Light Snow
5:55 PM 32.0 °F 23.6 °F 32.0 °F 100% 29.72 in 0.2 mi East 10.4 mph - N/A Snow Light Snow
6:16 PM 32.0 °F 23.6 °F 32.0 °F 100% 29.71 in 0.2 mi East 10.4 mph - N/A Fog Fog
6:35 PM 32.0 °F 24.2 °F 32.0 °F 100% 29.71 in 0.2 mi East 9.2 mph - N/A Snow Light Snow
6:55 PM 31.8 °F 22.8 °F 32.0 °F 100% 29.70 in 0.5 mi East 11.5 mph - N/A Fog Fog
7:15 PM 31.6 °F 24.4 °F 31.8 °F 100% 29.71 in 0.5 mi East 8.1 mph - N/A   Overcast
7:35 PM 31.6 °F 24.4 °F 31.8 °F 100% 29.71 in 2.0 mi East 8.1 mph - N/A   Overcast
7:55 PM 31.5 °F 22.9 °F 31.6 °F 100% 29.68 in 4.0 mi East 10.4 mph - N/A   Overcast
8:15 PM 31.5 °F 23.5 °F 31.6 °F 100% 29.68 in 3.0 mi East 9.2 mph - N/A   Overcast
8:35 PM 31.3 °F 23.9 °F 31.5 °F 100% 29.68 in 1.2 mi ESE 8.1 mph - N/A   Overcast
8:55 PM 31.3 °F 25.6 °F 31.5 °F 100% 29.67 in 1.5 mi ESE 5.8 mph - N/A   Overcast
9:14 PM 31.1 °F 25.4 °F 31.3 °F 100% 29.67 in 1.2 mi East 5.8 mph - N/A   Overcast
9:35 PM 31.1 °F 24.5 °F 31.1 °F 100% 29.64 in 1.5 mi East 6.9 mph - N/A   Overcast
9:55 PM 31.1 °F 24.5 °F 31.3 °F 100% 29.64 in 1.5 mi East 6.9 mph - N/A   Overcast
10:15 PM 31.1 °F 27.7 °F 31.1 °F 100% 29.64 in 1.2 mi East 3.5 mph - N/A   Overcast
10:35 PM 31.1 °F 26.4 °F 31.1 °F 100% 29.62 in 1.0 mi East 4.6 mph - N/A   Overcast
10:54 PM 31.1 °F 26.4 °F 31.1 °F 100% 29.60 in 0.5 mi ENE 4.6 mph - N/A Fog Light Freezing Fog
11:15 PM 31.1 °F 25.4 °F 31.1 °F 100% 29.59 in 0.5 mi ENE 5.8 mph - N/A Fog Light Freezing Fog
11:35 PM 31.1 °F 27.7 °F 31.1 °F 100% 29.59 in 0.5 mi NNE 3.5 mph - N/A Fog Light Freezing Fog
11:55 PM 31.1 °F 27.7 °F 31.1 °F 100% 29.58 in 0.5 mi North 3.5 mph - N/A Fog Light Freezing Fog